Roros Lufthavn, Norway

4:25 AM CET on December 12, 2019 (GMT +0100)
Roros

Weather History for ENRO - October, 2019

Change the Weather History Date:

Friday, October 18, 2019

  Actual Average Record
Temperature  
Mean Temperature 40 °F -  
Max Temperature 42 °F 36 °F 64 °F (2000)
Min Temperature 37 °F 27 °F 14 °F (2005)
Degree Days  
Heating Degree Days 26    
Moisture  
Dew Point 36 °F    
Average Humidity 90    
Maximum Humidity 100    
Minimum Humidity 76    
Precipitation  
Precipitation 0.00 in - - ()
Sea Level Pressure  
Sea Level Pressure 29.64 in    
Wind  
Wind Speed 6 mph ()    
Max Wind Speed 21 mph    
Max Gust Speed -    
Visibility 6.2 miles    
Events      
Averages and records for this station are not official NWS values.
T = Trace of Precipitation, MM = Missing Value Source: Averaged Metar Reports

Daily Weather History Graph

Daily Weather History Graph

Search for Another Location

Airport or City:

Astronomy

Oct. 18, 2019 Rise Set
Actual Time 8:07 AM CEST 5:50 PM CEST
Civil Twilight 7:21 AM CEST 6:37 PM CEST
Nautical Twilight 6:28 AM CEST 7:29 PM CEST
Astronomical Twilight 5:35 AM CEST 8:21 PM CEST
Moon 7:32 PM CEST (10/18) 1:41 PM CEST (10/18)
Length of Visible Light 11h 16m
Length of Day
9h 43m
Waning Gibbous, 81% of the Moon is Illuminated
Oct 18
Waning Gibbous
Oct 21
Last Quarter
Oct 28
New
Nov 4
First Quarter
Nov 12
Full

Hourly Weather History & Observations

Time (CEST) Temp. Windchill Dew Point Humidity Pressure Visibility Wind Dir Wind Speed Gust Speed Precip Events Conditions
12:20 AM 37.4 °F 32.1 °F 35.6 °F 93% 29.68 in 6.2 mi SE 6.9 mph - N/A   Overcast
12:50 AM 37.4 °F 32.1 °F 35.6 °F 93% 29.65 in 6.2 mi East 6.9 mph - N/A   Overcast
1:20 AM 37.4 °F 34.9 °F 35.6 °F 93% 29.65 in 6.2 mi SE 3.5 mph - N/A   Overcast
1:50 AM 37.4 °F 30.3 °F 35.6 °F 93% 29.65 in 6.2 mi SE 10.4 mph - N/A   Overcast
2:20 AM 37.4 °F 30.3 °F 35.6 °F 93% 29.65 in 6.2 mi ESE 10.4 mph - N/A   Overcast
2:50 AM 37.4 °F 31.4 °F 37.4 °F 100% 29.65 in 6.2 mi SE 8.1 mph - N/A   Overcast
3:20 AM 37.4 °F 32.1 °F 37.4 °F 100% 29.65 in 6.2 mi ESE 6.9 mph - N/A   Overcast
3:50 AM 37.4 °F 29.8 °F 35.6 °F 93% 29.65 in 6.2 mi East 11.5 mph - N/A   Overcast
4:20 AM 37.4 °F 26.9 °F 35.6 °F 93% 29.62 in 6.2 mi East 20.7 mph - N/A   Overcast
4:50 AM 37.4 °F 29.3 °F 37.4 °F 100% 29.62 in 6.2 mi East 12.7 mph - N/A   Overcast
5:20 AM 37.4 °F 31.4 °F 35.6 °F 93% 29.62 in 6.2 mi East 8.1 mph - N/A   Overcast
5:50 AM 37.4 °F 30.8 °F 37.4 °F 100% 29.62 in 6.2 mi SE 9.2 mph - N/A   Overcast
6:20 AM 37.4 °F 31.4 °F 35.6 °F 93% 29.62 in 6.2 mi ESE 8.1 mph - N/A   Mostly Cloudy
6:50 AM 37.4 °F 32.1 °F 35.6 °F 93% 29.62 in 6.2 mi ESE 6.9 mph - N/A   Mostly Cloudy
7:50 AM 37.4 °F 32.8 °F 37.4 °F 100% 29.62 in 6.2 mi SE 5.8 mph - N/A   Mostly Cloudy
8:20 AM 37.4 °F 34.9 °F 37.4 °F 100% 29.65 in 6.2 mi ESE 3.5 mph - N/A   Mostly Cloudy
8:50 AM 37.4 °F 32.8 °F 37.4 °F 100% 29.65 in 6.2 mi East 5.8 mph - N/A   Mostly Cloudy
9:20 AM 37.4 °F 33.8 °F 37.4 °F 100% 29.65 in 6.2 mi ESE 4.6 mph - N/A   Mostly Cloudy
9:50 AM 37.4 °F 33.8 °F 37.4 °F 100% 29.65 in 6.2 mi ESE 4.6 mph - N/A   Mostly Cloudy
10:20 AM 37.4 °F 34.9 °F 37.4 °F 100% 29.65 in 6.2 mi East 3.5 mph - N/A   Mostly Cloudy
10:50 AM 39.2 °F - 37.4 °F 93% 29.65 in 6.2 mi Variable 1.2 mph - N/A   Mostly Cloudy
11:20 AM 39.2 °F - 37.4 °F 93% 29.65 in 6.2 mi Variable 2.3 mph - N/A   Mostly Cloudy
11:50 AM 41.0 °F 39.0 °F 35.6 °F 81% 29.65 in 6.2 mi ESE 3.5 mph - N/A   Mostly Cloudy
12:20 PM 41.0 °F 38.0 °F 35.6 °F 81% 29.65 in 6.2 mi SE 4.6 mph - N/A   Mostly Cloudy
12:50 PM 41.0 °F 39.0 °F 37.4 °F 87% 29.65 in 6.2 mi ESE 3.5 mph - N/A   Mostly Cloudy
1:20 PM 41.0 °F 39.0 °F 37.4 °F 87% 29.65 in 6.2 mi East 3.5 mph - N/A   Mostly Cloudy
1:50 PM 41.0 °F 35.8 °F 35.6 °F 81% 29.65 in 6.2 mi SSW 8.1 mph - N/A   Mostly Cloudy
2:20 PM 42.8 °F 40.1 °F 35.6 °F 76% 29.65 in 6.2 mi SSW 4.6 mph - N/A   Mostly Cloudy
2:50 PM 41.0 °F 37.1 °F 35.6 °F 81% 29.65 in 6.2 mi SSW 5.8 mph - N/A   Mostly Cloudy
3:20 PM 41.0 °F 37.1 °F 35.6 °F 81% 29.65 in 6.2 mi SW 5.8 mph - N/A   Mostly Cloudy
3:50 PM 41.0 °F - 35.6 °F 81% 29.65 in 6.2 mi Variable 2.3 mph - N/A   Mostly Cloudy
4:20 PM 41.0 °F 39.0 °F 35.6 °F 81% 29.65 in 6.2 mi WSW 3.5 mph - N/A   Mostly Cloudy
4:50 PM 41.0 °F 37.1 °F 35.6 °F 81% 29.65 in 6.2 mi South 5.8 mph - N/A   Mostly Cloudy
5:20 PM 41.0 °F 39.0 °F 35.6 °F 81% 29.65 in 6.2 mi South 3.5 mph - N/A   Mostly Cloudy
5:50 PM 39.2 °F 35.9 °F 35.6 °F 87% 29.65 in 6.2 mi SW 4.6 mph - N/A   Mostly Cloudy
6:20 PM 39.2 °F 35.9 °F 35.6 °F 87% 29.65 in 6.2 mi South 4.6 mph - N/A   Mostly Cloudy
7:20 PM 39.2 °F 37.0 °F 35.6 °F 87% 29.65 in 6.2 mi SW 3.5 mph - N/A   Mostly Cloudy
8:20 PM 37.4 °F 32.1 °F 35.6 °F 93% 29.65 in 6.2 mi ESE 6.9 mph - N/A   Mostly Cloudy
9:20 PM 37.4 °F 32.1 °F 33.8 °F 87% 29.65 in 6.2 mi SE 6.9 mph - N/A   Mostly Cloudy
9:50 PM 37.4 °F 33.8 °F 35.6 °F 93% 29.65 in 6.2 mi South 4.6 mph - N/A   Overcast
10:20 PM 37.4 °F - 33.8 °F 87% 29.65 in 6.2 mi Variable 2.3 mph - N/A   Overcast
10:50 PM 37.4 °F - 33.8 °F 87% 29.65 in 6.2 mi Variable 2.3 mph - N/A   Overcast
11:20 PM 37.4 °F 33.8 °F 33.8 °F 87% 29.62 in 6.2 mi SE 4.6 mph - N/A   Overcast
11:50 PM 37.4 °F 32.1 °F 33.8 °F 87% 29.62 in 6.2 mi East 6.9 mph - N/A   Overcast